Weather History for Salina, KS

Change the Weather History Date:

Thursday, October 31, 2013

  Actual Average Record
Temperature  
Mean Temperature 55 °F 52 °F  
Max Temperature 65 °F 63 °F 85 °F (1950)
Min Temperature 45 °F 40 °F 14 °F (1993)
Degree Days  
Heating Degree Days 10 13  
Month to date heating degree days 293 268  
Since 1 July heating degree days 305 318  
Cooling Degree Days 0 0  
Month to date cooling degree days 55 34  
Year to date cooling degree days 1750 1646  
Growing Degree Days 4 (Base 50)    
Moisture  
Dew Point 41 °F    
Average Humidity 64    
Maximum Humidity 92    
Minimum Humidity 36    
Precipitation  
Precipitation 0.01 in 0.05 in 1.75 in (1991)
Month to date precipitation 1.19 2.27  
Year to date precipitation 29.06 29.31  
Sea Level Pressure  
Sea Level Pressure 29.69 in    
Wind  
Wind Speed 10 mph (NW)    
Max Wind Speed 26 mph    
Max Gust Speed 32 mph    
Visibility 10 miles    
Events Rain    
T = Trace of Precipitation, MM = Missing Value Source: NWS Daily Summary

Daily Weather History Graph

Daily Weather History Graph

Search for Another Location

Airport:

Trip Planner

Search our weather history database for the weather conditions in past years. The results will help you decide how hot, cold, wet, or windy it might be!

Date:

Astronomy

Oct. 31, 2013 Rise Set
Actual Time 7:56 AM CDT 6:30 PM CDT
Civil Twilight 7:29 AM CDT 6:58 PM CDT
Nautical Twilight 6:57 AM CDT 7:29 PM CDT
Astronomical Twilight 6:26 AM CDT 8:00 PM CDT
Moon 4:49 AM CDT (10/31) 4:48 PM CDT (10/31)
Length of Visible Light 11h 29m
Length of Day
10h 34m
Waning Crescent, 10% of the Moon is Illuminated
Oct 31
Waning Crescent
Nov 3
New
Nov 9
First Quarter
Nov 17
Full
Nov 25
Last Quarter

Hourly Weather History & Observations

Time (CDT) Temp. Windchill Dew Point Humidity Pressure Visibility Wind Dir Wind Speed Gust Speed Precip Events Conditions
12:53 AM 48.9 °F - 44.1 °F 83% 29.75 in 10.0 mi North 9.2 mph - N/A   Overcast
1:53 AM 48.9 °F - 44.1 °F 83% 29.74 in 10.0 mi North 5.8 mph - N/A   Overcast
2:53 AM 48.9 °F - 44.1 °F 83% 29.74 in 10.0 mi WNW 3.5 mph - N/A   Overcast
3:03 AM 48.2 °F - 44.6 °F 87% 29.74 in 10.0 mi South 4.6 mph - N/A   Overcast
3:36 AM 48.2 °F - 44.6 °F 87% 29.71 in 10.0 mi NW 4.6 mph - N/A   Overcast
3:53 AM 48.0 °F - 45.0 °F 89% 29.71 in 10.0 mi North 4.6 mph - N/A   Overcast
4:53 AM 48.0 °F - 45.0 °F 89% 29.69 in 10.0 mi Calm Calm - 0.01 in Rain Light Rain
5:53 AM 46.9 °F - 43.0 °F 86% 29.70 in 10.0 mi NW 9.2 mph - 0.00 in   Overcast
6:53 AM 46.0 °F 41.4 °F 42.1 °F 86% 29.70 in 9.0 mi NNW 9.2 mph - N/A   Overcast
7:53 AM 45.0 °F 39.7 °F 42.1 °F 90% 29.70 in - NW 10.4 mph - N/A   Overcast
8:04 AM 44.6 °F 40.7 °F 42.8 °F 93% 29.70 in 9.0 mi NNW 6.9 mph - N/A   Overcast
8:06 AM 44.6 °F 40.7 °F 42.8 °F 93% 29.70 in 9.0 mi NNW 6.9 mph - N/A   Mostly Cloudy
8:53 AM 46.0 °F 41.9 °F 42.1 °F 86% 29.69 in 10.0 mi North 8.1 mph - N/A   Partly Cloudy
9:53 AM 46.9 °F - 42.1 °F 83% 29.69 in 10.0 mi North 8.1 mph - N/A   Mostly Cloudy
10:53 AM 50.0 °F - 43.0 °F 77% 29.69 in 10.0 mi WNW 5.8 mph - N/A   Mostly Cloudy
11:53 AM 55.9 °F - 45.0 °F 67% 29.68 in 10.0 mi NW 9.2 mph - N/A   Mostly Cloudy
12:53 PM 60.1 °F - 43.0 °F 53% 29.66 in 10.0 mi NW 16.1 mph - N/A   Partly Cloudy
1:53 PM 62.1 °F - 41.0 °F 46% 29.63 in 10.0 mi WNW 15.0 mph - N/A   Partly Cloudy
2:53 PM 64.9 °F - 39.9 °F 40% 29.61 in 10.0 mi WNW 21.9 mph - N/A   Scattered Clouds
3:53 PM 64.9 °F - 37.0 °F 36% 29.61 in 10.0 mi WNW 18.4 mph 28.8 mph N/A   Scattered Clouds
4:53 PM 63.0 °F - 35.1 °F 35% 29.63 in 10.0 mi WNW 23.0 mph 28.8 mph N/A   Clear
5:53 PM 61.0 °F - 36.0 °F 39% 29.64 in 10.0 mi WNW 9.2 mph - N/A   Clear
6:53 PM 53.1 °F - 37.0 °F 55% 29.66 in 10.0 mi WNW 6.9 mph - N/A   Clear
7:53 PM 50.0 °F - 36.0 °F 59% 29.66 in 10.0 mi SW 3.5 mph - N/A   Clear
8:53 PM 48.9 °F - 37.0 °F 64% 29.67 in 10.0 mi SW 10.4 mph - N/A   Clear
9:53 PM 50.0 °F - 35.1 °F 57% 29.68 in 10.0 mi WSW 10.4 mph - N/A   Clear
10:53 PM 51.1 °F - 34.0 °F 52% 29.71 in 10.0 mi West 10.4 mph - N/A   Clear
11:53 PM 50.0 °F - 34.0 °F 54% 29.73 in 10.0 mi West 10.4 mph - N/A   Clear